Location: *
(44.9308°N, 123.0197°W)
Time: 02:54:41
(UTC+00:00)

Cosmos 1484 Rocket - Pass Details

Date: 09 April 2020
Orbit: 505 x 560 km, 97.4° (Epoch: 25 May)

Event Time Altitude Azimuth Distance (km) Brightness Sun altitude
Rises 12:43:38 0° 18° (NNE) 2,671 7.0 -9.9°
Reaches altitude 10° 12:45:50 10° 25° (NNE) 1,768 6.1 -9.5°
Maximum altitude 12:49:29 43° 98° (E) 730 4.0 -8.9°
Drops below altitude 10° 12:53:03 10° 172° (S) 1,728 5.2 -8.3°
Sets 12:55:11 0° 179° (S) 2,603 6.1 -8.0°
